Weather Roundup
Issued by NWS

Home | Current Version | Previous Version | Text Only | Print | Product List | Glossary On
Versions: 1 2 3 4 5 6 7 8 9 10 11 12 13 14 15 16 17 18 19 20 21 22 23 24 25 26 27 28 29 30 31 32 33 34 35 36 37 38 39 40 41 42 43 44 45 46 47 48 49 50
000
NZUS93 KARX 010110
HRRWXR

CURRENT HOURLY OBSERVATIONS ACROSS
MUCH OF THE UPPER MISSISSIPPI VALLEY
NATIONAL WEATHER SERVICE LA CROSSE WI
800 PM CDT WED AUG 31 2016


...SOUTHEAST MINNESOTA...


CITY           SKY/WX    TMP DP  RH WIND       PRES   REMARKS
ROCHESTER      CLEAR     64  55  72 N6        30.17S
ROCHESTER/MAYO FAIR      70  52  51 NW5       30.17R
WINONA         CLEAR     70  59  68 CALM      30.15R
AUSTIN         CLEAR     66  55  68 CALM      30.17R
ALBERT LEA     CLEAR     64  59  82 NE3       30.17R
DODGE CENTER   CLEAR     64  54  68 CALM      30.18R
PRESTON        CLEAR     65  54  65 N3        30.17R
OWATONNA       CLEAR     66  61  82 CALM      30.17R
FARIBAULT      CLEAR     66  61  82 CALM      30.17R
$$

...ELSEWHERE IN MINNESOTA...


CITY           SKY/WX    TMP DP  RH WIND       PRES   REMARKS
MINNEAPOLIS    PTCLDY    72  48  42 NE6       30.16R
INTNL FALLS    CLEAR     61  52  72 CALM      30.22R
DULUTH         PTCLDY    64  54  69 CALM      30.20R
RED WING       CLEAR     64  57  77 N5        30.15R
REDWOOD FALLS  CLEAR     72  59  63 CALM      30.17R
MANKATO        CLEAR     71  59  65 N5        30.18R
WORTHINGTON    CLEAR     69  62  78 NE5       30.20R
FAIRMONT       CLEAR     68  61  78 N5        30.18R
$$

...SOUTHWEST WISCONSIN...


CITY           SKY/WX    TMP DP  RH WIND       PRES   REMARKS
LA CROSSE      CLEAR     70  56  61 N3        30.13R
PRAIRIE DU CHI CLEAR     67  58  72 CALM      30.12R
BOSCOBEL       CLEAR     66  62  87 CALM      30.12R
LONE ROCK      CLEAR     65  60  84 CALM      30.12R
PLATTEVILLE    CLEAR     68  60  75 CALM      30.13R
FORT MC COY    CLEAR     64  59  85 CALM      30.15R
CAMP DOUGLAS   PTCLDY    63  57  82 CALM      30.13R
MAUSTON-NEW LI CLEAR     65  59  81 CALM      30.12S
VIROQUA        FAIR      65  57  75 N5        30.15R
WIS DELLS      CLEAR     65  56  72 CALM      30.12S
$$

...ELSEWHERE IN WISCONSIN...


CITY           SKY/WX    TMP DP  RH WIND       PRES   REMARKS
MILWAUKEE      PTCLDY    67  57  70 N6        30.11R
MADISON        PTCLDY    66  58  75 CALM      30.11R
GREEN BAY      PTCLDY    67  60  78 NE8       30.12R
EAU CLAIRE     CLEAR     67  56  67 N5        30.15R
BLACK RVR FLS  FAIR      62  60  94 CALM      30.14R
MEDFORD        PTCLDY    61  54  77 NE5       30.17R
WAUSAU         CLEAR     67  52  58 N7        30.15R
WIS RAPIDS     MOCLDY    67  56  67 N3        30.15R
MARSHFIELD     CLEAR     68  52  56 NE8       30.15R
RICE LAKE      CLEAR     62  55  79 N3        30.19R
$$

...NORTHEAST IOWA...


CITY           SKY/WX    TMP DP  RH WIND       PRES   REMARKS
WATERLOO       CLEAR     65  55  70 N7        30.12S
DUBUQUE        CLEAR     67  56  67 NE6       30.12S
DECORAH        CLEAR     68  57  68 CALM      30.14R
MASON CITY     CLEAR     65  59  81 N3        30.17S
CHARLES CITY   CLEAR     64  57  77 N6        30.15S
OELWEIN        CLEAR     66  57  72 N6        30.14S
$$

...ELSEWHERE IN IOWA...


CITY           SKY/WX    TMP DP  RH WIND       PRES   REMARKS
DES MOINES     PTCLDY    73  58  59 NE6       30.13R
IOWA CITY      CLEAR     71  57  61 NE6       30.12R
FORT DODGE     CLEAR     70  57  64 N3        30.17R
MARSHALLTOWN   CLEAR     68  62  81 N5        30.13R
CEDAR RAPIDS   CLEAR     68  56  65 N8        30.11R
$$

...NORTHERN ILLINOIS...


CITY           SKY/WX    TMP DP  RH WIND       PRES   REMARKS
CHICAGO-OHARE  PTCLDY    69  54  58 N9        30.08S
CHICAGO-MIDWAY PTCLDY    72  52  49 N15       30.07S
MOLINE         CLEAR     73  57  57 N6        30.09R
ROCKFORD       PTCLDY    70  55  59 NE6       30.11R
PEORIA         MOCLDY    72  63  73 N6        30.07R
$$

NOTE: "FAIR" INDICATES FEW OR NO CLOUDS BELOW 12,000 FEET WITH NO
SIGNIFICANT WEATHER AND/OR OBSTRUCTIONS TO VISIBILITY. WIND
SPEEDS ARE IN MILES-PER-HOUR.




USA.gov is the U.S. government's official web portal to all federal, state and local government web resources and services.